This is the latest recevied weather packets stored in our database for station/object SR5NLK-1. If no packets are shown the sender has not sent any weather packets the latest 1 day(s).
| Time | Temp. | Humidity | Pressure | Rain* | Wind** | Luminosity | Snow |
|---|---|---|---|---|---|---|---|
| 1778023951 | 13.33° C | 75% | 1081.5 hPa | 0 mm | 0.89 m/s, 22° | - | - |
| 1778023651 | 13.33° C | 75% | 1078.4 hPa | 0 mm | 3.13 m/s, 0° | - | - |
| 1778023351 | 13.33° C | 75% | 1081.6 hPa | 0 mm | 0.89 m/s, 0° | - | - |
| 1778023052 | 13.33° C | 75% | 1007.7 hPa | 0 mm | 1.34 m/s, 45° | - | - |
| 1778022751 | 13.89° C | 75% | 1104.9 hPa | 0 mm | 3.13 m/s, 0° | - | - |
| 1778022452 | 13.89° C | 75% | 1087.8 hPa | 0 mm | 0.89 m/s, 0° | - | - |
| 1778022152 | 13.89° C | 75% | 1012.4 hPa | 0 mm | 4.02 m/s, 0° | - | - |
| 1778021852 | 13.89° C | 74% | 963.6 hPa | 0 mm | 1.79 m/s, 0° | - | - |
| 1778021552 | 14.44° C | 74% | 1081.5 hPa | 0 mm | 1.34 m/s, 0° | - | - |
| 1778021252 | 14.44° C | 74% | 946.6 hPa | 0 mm | 1.34 m/s, 22° | - | - |
| 1778020952 | 14.44° C | 74% | 1007 hPa | 0 mm | 0 m/s | - | - |
| 1778020771 | 14.44° C | 73% | 1090.9 hPa | 0 mm | 2.24 m/s, 67° | - | - |
| 1778020652 | 14.44° C | 73% | 922.9 hPa | 0 mm | 1.34 m/s, 67° | - | - |
| 1778020352 | 14.44° C | 73% | 1002.5 hPa | 0 mm | 0.89 m/s, 0° | - | - |
| 1778020052 | 15° C | 73% | 1051.9 hPa | 0 mm | 1.79 m/s, 67° | - | - |
| 1778019752 | 15° C | 73% | 1045.7 hPa | 0 mm | 0 m/s | - | - |
| 1778019452 | 15° C | 73% | 953 hPa | 0 mm | 2.24 m/s, 22° | - | - |
| 1778019152 | 15° C | 72% | 1055.4 hPa | 0 mm | 3.13 m/s, 67° | - | - |
| 1778018852 | 15.56° C | 71% | 989.1 hPa | 0 mm | 0.89 m/s, 22° | - | - |
| 1778018791 | 15.56° C | 71% | 937.9 hPa | 0 mm | 0.89 m/s, 0° | - | - |
| 1778018552 | 15.56° C | 71% | 885.3 hPa | 0 mm | 0.89 m/s, 67° | - | - |
| 1778018252 | 15.56° C | 71% | 1064.1 hPa | 0 mm | 1.79 m/s, 337° | - | - |
| 1778017952 | 15.56° C | 70% | 1103.5 hPa | 0 mm | 1.34 m/s, 45° | - | - |
| 1778017652 | 15.56° C | 70% | 1078.4 hPa | 0 mm | 1.34 m/s, 22° | - | - |
| 1778017352 | 16.11° C | 69% | 1010.4 hPa | 0 mm | 0.89 m/s, 22° | - | - |
* Rain latest hour (hover to see other rain measurements)
** Current wind speed in m/s (hover to see current wind gust speed)